EW1968 Weather Reports


Display with metric or nautical units.
time (UTC)temp
F
wind
direction
speed
MPH
gust
MPH
rain 1hr
in
rain 24hr
in
rain mn
in
humidity
%
barometer
mb
20191023074512 55 157 2.0 3.0 0.00 0.00 0.00 7 864.0
20191023073012 55 157 2.0 2.0 0.00 0.00 0.00 7 864.0
20191023071512 56 157 2.0 2.0 0.00 0.00 0.00 6 864.0
20191023070101 0 0.0 0.0 0.00 0.00 0.00
20191023070015 56 157 2.0 2.0 0.00 0.00 0.00 6 864.0
20191023064511 56 157 2.0 3.0 0.00 0.00 0.00 6 864.0
20191023063011 56 157 2.0 2.0 0.00 0.00 0.00 6 864.0
20191023061511 56 157 1.0 0.0 0.00 0.00 0.00 6 864.0
20191023060012 56 157 2.0 2.0 0.00 0.00 0.00 6 864.0
20191023054512 56 157 2.0 2.0 0.00 0.00 0.00 6 864.0
20191023053011 56 180 1.0 1.0 0.00 0.00 0.00 6 865.0
20191023051512 56 157 1.0 1.0 0.00 0.00 0.00 6 865.0
20191023050011 56 157 1.0 2.0 0.00 0.00 0.00 6 865.0
20191023044512 57 180 1.0 2.0 0.00 0.00 0.00 6 865.0
20191023043011 57 180 2.0 2.0 0.00 0.00 0.00 6 865.0
20191023041511 57 180 2.0 1.0 0.00 0.00 0.00 6 865.0
20191023040011 58 180 1.0 1.0 0.00 0.00 0.00 6 865.0
20191023034511 58 202 0.0 1.0 0.00 0.00 0.00 6 865.0
20191023033011 60 180 1.0 2.0 0.00 0.00 0.00 6 865.0
20191023031511 60 180 2.0 3.0 0.00 0.00 0.00 6 865.0
20191023030012 60 202 1.0 1.0 0.00 0.00 0.00 6 865.0
20191023024511 60 202 1.0 1.0 0.00 0.00 0.00 6 865.0
20191023023012 59 202 1.0 1.0 0.00 0.00 0.00 6 865.0
20191023021511 62 180 2.0 1.0 0.00 0.00 0.00 5 865.0
20191023020011 62 202 2.0 2.0 0.00 0.00 0.00 5 865.0
20191023014511 61 157 1.0 1.0 0.00 0.00 0.00 5 865.0
20191023013011 62 157 1.0 1.0 0.00 0.00 0.00 5 865.0
20191023011511 64 157 1.0 1.0 0.00 0.00 0.00 5 866.0
20191023010012 67 157 1.0 1.0 0.00 0.00 0.00 4 865.0
20191023004511 70 157 1.0 1.0 0.00 0.00 0.00 4 866.0
20191023003011 72 112 1.0 1.0 0.00 0.00 0.00 3 866.0
20191023001511 74 45 2.0 2.0 0.00 0.00 0.00 2 866.0
20191023000011 76 90 2.0 2.0 0.00 0.00 0.00 2 866.0
20191022234511 78 0 3.0 2.0 0.00 0.00 0.00 2 866.0
20191022233011 79 0 3.0 5.0 0.00 0.00 0.00 2 866.0
20191022231511 81 315 2.0 2.0 0.00 0.00 0.00 2 866.0
20191022230011 86 337 1.0 2.0 0.00 0.00 0.00 2 866.0
20191022224511 85 45 4.0 3.0 0.00 0.00 0.00 2 865.0
20191022223011 84 337 3.0 3.0 0.00 0.00 0.00 2 866.0
20191022221511 85 0 2.0 3.0 0.00 0.00 0.00 2 866.0
20191022220011 85 0 2.0 2.0 0.00 0.00 0.00 2 865.0
20191022214511 85 315 5.0 4.0 0.00 0.00 0.00 2 865.0
20191022213012 87 45 4.0 7.0 0.00 0.00 0.00 2 865.0
20191022211511 87 22 2.0 1.0 0.00 0.00 0.00 2 865.0
20191022210011 87 0 5.0 5.0 0.00 0.00 0.00 2 865.0
20191022204510 87 45 5.0 6.0 0.00 0.00 0.00 2 866.0
20191022203011 87 90 2.0 3.0 0.00 0.00 0.00 2 866.0
20191022201510 86 135 5.0 4.0 0.00 0.00 0.00 2 866.0
20191022200011 86 67 5.0 7.0 0.00 0.00 0.00 2 866.0
20191022194511 85 112 6.0 5.0 0.00 0.00 0.00 2 866.0
20191022193012 84 202 4.0 3.0 0.00 0.00 0.00 2 867.0
20191022191511 83 135 4.0 9.0 0.00 0.00 0.00 2 866.0
20191022190011 82 112 4.0 4.0 0.00 0.00 0.00 2 867.0
20191022184512 81 112 4.0 3.0 0.00 0.00 0.00 2 867.0
20191022183011 80 157 5.0 7.0 0.00 0.00 0.00 2 867.0
20191022181511 79 90 6.0 7.0 0.00 0.00 0.00 2 867.0
20191022180012 77 112 6.0 4.0 0.00 0.00 0.00 2 867.0
20191022174511 76 45 4.0 4.0 0.00 0.00 0.00 2 867.0
20191022173011 75 90 3.0 4.0 0.00 0.00 0.00 2 867.0
20191022171510 73 135 5.0 4.0 0.00 0.00 0.00 3 867.0
20191022170012 72 112 4.0 6.0 0.00 0.00 0.00 3 867.0
20191022164510 70 135 3.0 4.0 0.00 0.00 0.00 3 867.0
20191022163011 69 90 6.0 4.0 0.00 0.00 0.00 4 867.0
20191022161511 68 90 5.0 6.0 0.00 0.00 0.00 4 867.0
20191022160011 67 90 4.0 4.0 0.00 0.00 0.00 4 867.0
20191022154510 66 112 4.0 5.0 0.00 0.00 0.00 4 867.0
20191022153012 64 67 2.0 4.0 0.00 0.00 0.00 5 867.0
20191022151511 62 90 4.0 4.0 0.00 0.00 0.00 5 866.0
20191022150011 60 90 3.0 2.0 0.00 0.00 0.00 6 866.0
20191022144510 58 90 2.0 2.0 0.00 0.00 0.00 6 866.0
20191022143011 57 90 3.0 4.0 0.00 0.00 0.00 6 866.0
20191022141511 55 112 4.0 3.0 0.00 0.00 0.00 7 866.0
20191022140011 54 112 3.0 3.0 0.00 0.00 0.00 7 866.0
20191022134511 53 112 2.0 3.0 0.00 0.00 0.00 7 866.0
20191022133011 53 112 2.0 2.0 0.00 0.00 0.00 7 866.0
20191022131512 54 90 2.0 2.0 0.00 0.00 0.00 7 866.0
20191022130011 54 112 3.0 3.0 0.00 0.00 0.00 7 866.0
20191022124510 54 112 2.0 3.0 0.00 0.00 0.00 7 866.0
20191022123010 54 135 2.0 3.0 0.00 0.00 0.00 7 866.0
20191022121510 55 112 2.0 2.0 0.00 0.00 0.00 7 866.0
20191022120010 54 112 3.0 3.0 0.00 0.00 0.00 7 865.0
20191022114510 55 135 3.0 3.0 0.00 0.00 0.00 7 865.0
20191022113011 55 90 3.0 3.0 0.00 0.00 0.00 7 865.0
20191022111511 55 112 4.0 4.0 0.00 0.00 0.00 7 865.0
20191022110010 55 112 3.0 3.0 0.00 0.00 0.00 7 865.0
20191022104513 55 112 3.0 3.0 0.00 0.00 0.00 7 866.0
20191022103012 55 112 3.0 3.0 0.00 0.00 0.00 7 865.0
20191022101510 55 112 3.0 3.0 0.00 0.00 0.00 7 866.0
20191022100011 55 90 3.0 2.0 0.00 0.00 0.00 7 866.0
20191022094510 55 112 4.0 3.0 0.00 0.00 0.00 7 866.0
20191022093010 55 112 3.0 3.0 0.00 0.00 0.00 7 866.0
20191022091512 55 135 3.0 4.0 0.00 0.00 0.00 7 866.0
20191022090010 55 90 2.0 2.0 0.00 0.00 0.00 7 866.0
20191022084511 55 90 3.0 4.0 0.00 0.00 0.00 7 866.0
20191022083011 55 90 3.0 2.0 0.00 0.00 0.00 7 866.0
20191022081510 54 112 3.0 2.0 0.00 0.00 0.00 7 866.0
20191022080012 54 112 3.0 3.0 0.00 0.00 0.00 7 866.0